| time (UTC) | temp F | wind direction | speed MPH | gust MPH | rain 1hr in | rain 24hr in | rain mn in | humidity % | barometer mb |
| 20260906194845 | 78 | 286 | 0.0 | 2.0 | 0.00 | 0.00 | 0.00 | 53 | 1014.8 |
| 20260906194538 | 77 | 123 | 0.0 | 2.0 | 0.00 | 0.00 | 0.00 | 57 | 1013.9 |
| 20260906194337 | 78 | 123 | 0.0 | 2.0 | 0.00 | 0.00 | 0.00 | 57 | 1014.9 |
| 20260906193851 | 78 | 123 | 0.0 | 2.0 | 0.00 | 0.00 | 0.00 | 53 | 1015.0 |
| 20260906193343 | 78 | 309 | 0.0 | 4.0 | 0.00 | 0.00 | 0.00 | 57 | 1015.0 |
| 20260906193059 | 78 | 68 | 0.0 | 4.0 | 0.00 | 0.00 | 0.00 | 52 | 1014.1 |
| 20260906192856 | 78 | 68 | 1.0 | 4.0 | 0.00 | 0.00 | 0.00 | 51 | 1015.0 |
| 20260906192349 | 78 | 44 | 1.0 | 3.0 | 0.00 | 0.00 | 0.00 | 53 | 1014.9 |
| 20260906191841 | 78 | 46 | 0.0 | 2.0 | 0.00 | 0.00 | 0.00 | 58 | 1015.0 |
| 20260906191553 | 78 | 46 | 0.0 | 3.0 | 0.00 | 0.00 | 0.00 | 52 | 1014.1 |
| 20260906191353 | 78 | 46 | 1.0 | 3.0 | 0.00 | 0.00 | 0.00 | 53 | 1015.0 |
| 20260906190905 | 78 | 5 | 2.0 | 3.0 | 0.00 | 0.00 | 0.00 | 59 | 1015.0 |
| 20260906190357 | 79 | 37 | 1.0 | 3.0 | 0.00 | 0.00 | 0.00 | 53 | 1015.0 |
| 20260906190045 | 79 | 109 | 0.0 | 3.0 | 0.00 | 0.00 | 0.00 | 55 | 1014.1 |
| 20260906185845 | 79 | 96 | 0.0 | 3.0 | 0.00 | 0.00 | 0.00 | 55 | 1015.0 |
| 20260906185437 | 80 | 71 | 0.0 | 3.0 | 0.00 | 0.00 | 0.00 | 51 | 1015.1 |
| 20260906184846 | 81 | 19 | 1.0 | 3.0 | 0.00 | 0.00 | 0.00 | 57 | 1015.2 |
| 20260906184540 | 80 | 123 | 0.0 | 3.0 | 0.00 | 0.00 | 0.00 | 57 | 1014.2 |
| 20260906184339 | 79 | 248 | 0.0 | 3.0 | 0.00 | 0.00 | 0.00 | 60 | 1015.2 |
| 20260906183852 | 79 | 355 | 1.0 | 2.0 | 0.00 | 0.00 | 0.00 | 63 | 1015.4 |
| 20260906183344 | 80 | 94 | 0.0 | 3.0 | 0.00 | 0.00 | 0.00 | 58 | 1015.3 |
| 20260906183043 | 80 | 94 | 0.0 | 3.0 | 0.00 | 0.00 | 0.00 | 59 | 1014.4 |
| 20260906182837 | 80 | 20 | 1.0 | 4.0 | 0.00 | 0.00 | 0.00 | 56 | 1015.3 |
| 20260906182411 | 80 | 290 | 1.0 | 4.0 | 0.00 | 0.00 | 0.00 | 54 | 1015.4 |
| 20260906181842 | 79 | 255 | 2.0 | 3.0 | 0.00 | 0.00 | 0.00 | 57 | 1015.3 |
| 20260906181555 | 80 | 87 | 0.0 | 3.0 | 0.00 | 0.00 | 0.00 | 57 | 1014.4 |
| 20260906181355 | 80 | 282 | 0.0 | 3.0 | 0.00 | 0.00 | 0.00 | 59 | 1015.4 |
| 20260906180847 | 80 | 223 | 1.0 | 4.0 | 0.00 | 0.00 | 0.00 | 56 | 1015.4 |
| 20260906180340 | 80 | 130 | 0.0 | 4.0 | 0.00 | 0.00 | 0.00 | 58 | 1015.5 |
| 20260906180050 | 80 | 132 | 0.0 | 4.0 | 0.00 | 0.00 | 0.00 | 57 | 1014.5 |
| 20260906175849 | 80 | 211 | 0.0 | 4.0 | 0.00 | 0.00 | 0.00 | 59 | 1015.5 |
| 20260906175341 | 79 | 55 | 0.0 | 3.0 | 0.00 | 0.00 | 0.00 | 62 | 1015.4 |
| 20260906174855 | 80 | 11 | 1.0 | 3.0 | 0.00 | 0.00 | 0.00 | 58 | 1015.5 |
| 20260906174550 | 81 | 113 | 0.0 | 3.0 | 0.00 | 0.00 | 0.00 | 61 | 1014.5 |
| 20260906174347 | 81 | 172 | 0.0 | 3.0 | 0.00 | 0.00 | 0.00 | 64 | 1015.5 |
| 20260906173844 | 79 | 310 | 0.0 | 2.0 | 0.00 | 0.00 | 0.00 | 63 | 1015.4 |
| 20260906173356 | 78 | 310 | 1.0 | 5.0 | 0.00 | 0.00 | 0.00 | 65 | 1015.4 |
| 20260906173057 | 77 | 225 | 0.0 | 5.0 | 0.00 | 0.00 | 0.00 | 68 | 1014.5 |
| 20260906172849 | 77 | 225 | 1.0 | 5.0 | 0.00 | 0.00 | 0.00 | 73 | 1015.5 |
| 20260906172457 | 75 | 49 | 0.0 | 2.0 | 0.00 | 0.00 | 0.00 | 73 | 1015.5 |
| 20260906171843 | 74 | 49 | 0.0 | 0.0 | 0.00 | 0.00 | 0.00 | 76 | 1015.6 |
| 20260906171543 | 73 | 49 | 0.0 | 0.0 | 0.00 | 0.00 | 0.00 | 74 | 1014.6 |
| 20260906171339 | 74 | 49 | 0.0 | 0.0 | 0.00 | 0.00 | 0.00 | 73 | 1015.6 |
| 20260906170852 | 75 | 49 | 0.0 | 2.0 | 0.00 | 0.00 | 0.00 | 68 | 1015.6 |
| 20260906170407 | 76 | 49 | 327.0 | 327.0 | 0.00 | 0.00 | 0.00 | 66 | 1015.4 |
| 20260906170057 | 76 | 49 | 1.0 | 7.0 | 0.00 | 0.00 | 0.00 | 65 | 1014.7 |
| 20260906165855 | 77 | 88 | 0.0 | 5.0 | 0.00 | 0.00 | 0.00 | 63 | 1015.6 |
| 20260906165406 | 77 | 234 | 1.0 | 5.0 | 0.00 | 0.00 | 0.00 | 67 | 1015.6 |
| 20260906164913 | 76 | 218 | 2.0 | 4.0 | 0.00 | 0.00 | 0.00 | 66 | 1015.7 |
| 20260906164549 | 76 | 218 | 0.0 | 4.0 | 0.00 | 0.00 | 0.00 | 66 | 1014.8 |
| 20260906164348 | 77 | 218 | 0.0 | 4.0 | 0.00 | 0.00 | 0.00 | 69 | 1015.8 |
| 20260906163841 | 76 | 222 | 2.0 | 4.0 | 0.00 | 0.00 | 0.00 | 66 | 1015.8 |
| 20260906163415 | 76 | 259 | 1.0 | 4.0 | 0.00 | 0.00 | 0.00 | 70 | 1015.8 |
| 20260906163046 | 75 | 74 | 1.0 | 5.0 | 0.00 | 0.00 | 0.00 | 69 | 1014.9 |
| 20260906162846 | 75 | 35 | 1.0 | 5.0 | 0.00 | 0.00 | 0.00 | 69 | 1015.9 |
| 20260906162339 | 75 | 35 | 1.0 | 5.0 | 0.00 | 0.00 | 0.00 | 71 | 1015.9 |
| 20260906161853 | 75 | 61 | 1.0 | 4.0 | 0.00 | 0.00 | 0.00 | 67 | 1015.9 |
| 20260906161506 | 74 | 229 | 1.0 | 4.0 | 0.00 | 0.00 | 0.00 | 69 | 1015.0 |
| 20260906161406 | 75 | 229 | 1.0 | 4.0 | 0.00 | 0.00 | 0.00 | 69 | 1016.0 |
| 20260906160838 | 75 | 242 | 1.0 | 5.0 | 0.00 | 0.00 | 0.00 | 68 | 1016.1 |
| 20260906160351 | 75 | 65 | 2.0 | 3.0 | 0.00 | 0.00 | 0.00 | 69 | 1016.2 |
| 20260906160041 | 74 | 288 | 1.0 | 3.0 | 0.00 | 0.00 | 0.00 | 70 | 1015.2 |
| 20260906155841 | 74 | 201 | 1.0 | 3.0 | 0.00 | 0.00 | 0.00 | 69 | 1016.1 |
| 20260906155354 | 74 | 148 | 1.0 | 4.0 | 0.00 | 0.00 | 0.00 | 70 | 1016.2 |
| 20260906154846 | 74 | 202 | 1.0 | 4.0 | 0.00 | 0.00 | 0.00 | 69 | 1016.2 |
| 20260906154540 | 73 | 36 | 0.0 | 0.0 | 0.00 | 0.00 | 0.00 | 71 | 1015.2 |
| 20260906154339 | 74 | 284 | 0.0 | 0.0 | 0.00 | 0.00 | 0.00 | 73 | 1016.2 |
| 20260906153916 | 73 | 254 | 0.0 | 0.0 | 0.00 | 0.00 | 0.00 | 70 | 1016.2 |
| 20260906153346 | 73 | 54 | 0.0 | 0.0 | 0.00 | 0.00 | 0.00 | 71 | 1016.2 |
| 20260906153039 | 73 | 89 | 0.0 | 0.0 | 0.00 | 0.00 | 0.00 | 77 | 1015.2 |
| 20260906152838 | 73 | 175 | 327.0 | 327.0 | 0.00 | 0.00 | 0.00 | 77 | 1016.0 |
| 20260906152352 | 73 | 175 | 0.0 | 0.0 | 0.00 | 0.00 | 0.00 | 76 | 1016.2 |
| 20260906151846 | 72 | 197 | 0.0 | 0.0 | 0.00 | 0.00 | 0.00 | 75 | 1016.2 |
| 20260906151602 | 72 | 173 | 0.0 | 0.0 | 0.00 | 0.00 | 0.00 | 76 | 1015.2 |
| 20260906151359 | 72 | 346 | 0.0 | 0.0 | 0.00 | 0.00 | 0.00 | 78 | 1016.1 |
| 20260906150852 | 71 | 63 | 0.0 | 0.0 | 0.00 | 0.00 | 0.00 | 78 | 1016.2 |
| 20260906150407 | 71 | 62 | 0.0 | 0.0 | 0.00 | 0.00 | 0.00 | 79 | 1016.2 |
| 20260906150056 | 70 | 107 | 0.0 | 0.0 | 0.00 | 0.00 | 0.00 | 79 | 1015.2 |
| 20260906145854 | 71 | 107 | 0.0 | 0.0 | 0.00 | 0.00 | 0.00 | 79 | 1016.2 |
| 20260906145347 | 71 | 229 | 0.0 | 0.0 | 0.00 | 0.00 | 0.00 | 80 | 1016.2 |
| 20260906144840 | 70 | 229 | 0.0 | 0.0 | 0.00 | 0.00 | 0.00 | 80 | 1016.2 |
| 20260906144519 | 70 | 98 | 0.0 | 0.0 | 0.00 | 0.00 | 0.00 | 84 | 1015.2 |
| 20260906144415 | 70 | 98 | 0.0 | 0.0 | 0.00 | 0.00 | 0.00 | 84 | 1016.2 |
| 20260906143043 | 69 | 43 | 0.0 | 0.0 | 0.00 | 0.00 | 0.00 | 84 | 1015.2 |
| 20260906141540 | 68 | 71 | 0.0 | 0.0 | 0.00 | 0.00 | 0.00 | 87 | 1015.2 |
| 20260906140044 | 66 | 323 | 0.0 | 0.0 | 0.00 | 0.00 | 0.00 | 88 | 1015.2 |
| 20260906134538 | 65 | 88 | 0.0 | 0.0 | 0.00 | 0.00 | 0.00 | 90 | 1015.1 |
| 20260906133043 | 64 | 72 | 0.0 | 0.0 | 0.00 | 0.00 | 0.00 | 93 | 1015.2 |
| 20260906131538 | 62 | 85 | 0.0 | 1.0 | 0.00 | 0.00 | 0.00 | 94 | 1015.3 |
| 20260906130038 | 62 | 97 | 0.0 | 0.0 | 0.00 | 0.00 | 0.00 | 94 | 1015.3 |
| 20260906124538 | 62 | 97 | 0.0 | 0.0 | 0.00 | 0.00 | 0.00 | 94 | 1015.2 |
| 20260906123037 | 62 | 97 | 0.0 | 0.0 | 0.00 | 0.00 | 0.00 | 94 | 1015.0 |
| 20260906121533 | 62 | 97 | 0.0 | 0.0 | 0.00 | 0.00 | 0.00 | 94 | 1014.8 |
| 20260906120029 | 62 | 97 | 0.0 | 0.0 | 0.00 | 0.00 | 0.00 | 93 | 1014.6 |
| 20260906114527 | 62 | 97 | 0.0 | 0.0 | 0.00 | 0.00 | 0.00 | 93 | 1014.4 |
| 20260906113026 | 62 | 97 | 0.0 | 0.0 | 0.00 | 0.00 | 0.00 | 93 | 1014.1 |
| 20260906111523 | 62 | 97 | 0.0 | 0.0 | 0.00 | 0.00 | 0.00 | 94 | 1013.9 |
| 20260906110025 | 62 | 97 | 0.0 | 0.0 | 0.00 | 0.00 | 0.00 | 94 | 1013.8 |
| 20260906104521 | 62 | 97 | 0.0 | 0.0 | 0.00 | 0.00 | 0.00 | 93 | 1013.7 |
| 20260906103039 | 63 | 97 | 0.0 | 0.0 | 0.00 | 0.00 | 0.00 | 93 | 1013.4 |
| 20260906101518 | 63 | 97 | 0.0 | 0.0 | 0.00 | 0.00 | 0.00 | 93 | 1013.4 |
| 20260906100025 | 63 | 97 | 0.0 | 0.0 | 0.00 | 0.00 | 0.00 | 93 | 1013.3 |
| 20260906094513 | 63 | 97 | 0.0 | 0.0 | 0.00 | 0.00 | 0.00 | 93 | 1013.2 |
| 20260906093012 | 63 | 97 | 0.0 | 0.0 | 0.00 | 0.00 | 0.00 | 93 | 1013.2 |
| 20260906091510 | 64 | 97 | 0.0 | 0.0 | 0.00 | 0.00 | 0.00 | 93 | 1013.1 |
| 20260906090008 | 64 | 97 | 0.0 | 0.0 | 0.00 | 0.00 | 0.00 | 93 | 1012.9 |
| 20260906084506 | 64 | 97 | 0.0 | 0.0 | 0.00 | 0.00 | 0.00 | 93 | 1012.8 |
| 20260906083004 | 65 | 97 | 0.0 | 0.0 | 0.00 | 0.00 | 0.00 | 93 | 1012.6 |
| 20260906081502 | 65 | 97 | 0.0 | 0.0 | 0.00 | 0.00 | 0.00 | 93 | 1012.6 |
| 20260906074559 | 65 | 97 | 0.0 | 0.0 | 0.00 | 0.00 | 0.00 | 93 | 1012.6 |
| 20260906073100 | 66 | 97 | 0.0 | 0.0 | 0.00 | 0.00 | 0.00 | 93 | 1012.5 |
| 20260906071557 | 66 | 97 | 0.0 | 0.0 | 0.00 | 0.00 | 0.00 | 93 | 1012.3 |
| 20260906070056 | 66 | 97 | 0.0 | 0.0 | 0.00 | 0.00 | 0.00 | 93 | 1012.2 |
| 20260906064557 | 66 | 97 | 0.0 | 0.0 | 0.00 | 0.00 | 0.00 | 93 | 1012.4 |
| 20260906063053 | 66 | 97 | 0.0 | 0.0 | 0.00 | 0.00 | 0.00 | 93 | 1012.3 |
| 20260906061556 | 67 | 97 | 0.0 | 0.0 | 0.00 | 0.00 | 0.00 | 93 | 1012.4 |
| 20260906060343 | 67 | 97 | 0.0 | 0.0 | 0.00 | 0.00 | 0.00 | 93 | 1013.3 |
| 20260906060100 | 67 | 97 | 0.0 | 0.0 | 0.00 | 0.00 | 0.00 | 93 | 1012.2 |
| 20260906055855 | 68 | 97 | 0.0 | 0.0 | 0.00 | 0.00 | 0.00 | 93 | 1013.1 |
| 20260906055348 | 68 | 97 | 0.0 | 0.0 | 0.00 | 0.00 | 0.00 | 93 | 1013.1 |
| 20260906054840 | 68 | 97 | 0.0 | 0.0 | 0.00 | 0.00 | 0.00 | 93 | 1013.1 |
| 20260906054553 | 67 | 97 | 0.0 | 0.0 | 0.00 | 0.00 | 0.00 | 93 | 1012.0 |
| 20260906054353 | 68 | 97 | 0.0 | 0.0 | 0.00 | 0.00 | 0.00 | 93 | 1013.1 |
| 20260906053845 | 68 | 97 | 0.0 | 0.0 | 0.00 | 0.00 | 0.00 | 93 | 1013.1 |
| 20260906053037 | 68 | 97 | 0.0 | 0.0 | 0.00 | 0.00 | 0.00 | 93 | 1012.1 |
| 20260906052835 | 68 | 97 | 0.0 | 0.0 | 0.00 | 0.00 | 0.00 | 93 | 1013.1 |
| 20260906052347 | 69 | 97 | 0.0 | 0.0 | 0.00 | 0.00 | 0.00 | 93 | 1013.2 |
| 20260906051841 | 69 | 97 | 0.0 | 0.0 | 0.00 | 0.00 | 0.00 | 93 | 1013.1 |
| 20260906051531 | 68 | 97 | 0.0 | 0.0 | 0.00 | 0.00 | 0.00 | 93 | 1012.1 |
| 20260906050909 | 69 | 97 | 0.0 | 0.0 | 0.00 | 0.00 | 0.00 | 93 | 1013.2 |
| 20260906050341 | 69 | 97 | 0.0 | 0.0 | 0.00 | 0.00 | 0.00 | 93 | 1013.2 |
| 20260906050051 | 69 | 97 | 0.0 | 0.0 | 0.00 | 0.00 | 0.00 | 93 | 1012.2 |
| 20260906045850 | 69 | 97 | 0.0 | 0.0 | 0.00 | 0.00 | 0.00 | 93 | 1013.2 |
| 20260906045404 | 69 | 97 | 0.0 | 0.0 | 0.00 | 0.00 | 0.00 | 93 | 1013.2 |
| 20260906044836 | 69 | 97 | 0.0 | 0.0 | 0.00 | 0.00 | 0.00 | 93 | 1013.1 |
| 20260906044510 | 69 | 97 | 0.0 | 0.0 | 0.00 | 0.00 | 0.00 | 93 | 1012.1 |
| 20260906044409 | 70 | 97 | 0.0 | 0.0 | 0.00 | 0.00 | 0.00 | 93 | 1013.2 |
| 20260906043840 | 70 | 97 | 0.0 | 0.0 | 0.00 | 0.00 | 0.00 | 93 | 1013.3 |
| 20260906043337 | 70 | 97 | 0.0 | 0.0 | 0.00 | 0.00 | 0.00 | 93 | 1013.3 |
| 20260906043050 | 69 | 97 | 0.0 | 0.0 | 0.00 | 0.00 | 0.00 | 93 | 1012.2 |
| 20260906042849 | 70 | 97 | 0.0 | 0.0 | 0.00 | 0.00 | 0.00 | 93 | 1013.2 |
| 20260906042343 | 70 | 97 | 0.0 | 0.0 | 0.00 | 0.00 | 0.00 | 93 | 1013.2 |
| 20260906041856 | 70 | 97 | 0.0 | 0.0 | 0.00 | 0.00 | 0.00 | 93 | 1013.2 |
| 20260906041549 | 70 | 97 | 0.0 | 0.0 | 0.00 | 0.00 | 0.00 | 93 | 1012.2 |
| 20260906041348 | 70 | 97 | 0.0 | 0.0 | 0.00 | 0.00 | 0.00 | 93 | 1013.2 |
| 20260906040048 | 70 | 97 | 0.0 | 0.0 | 0.00 | 0.00 | 0.00 | 93 | 1012.4 |
| 20260906035848 | 70 | 97 | 0.0 | 0.0 | 0.00 | 0.00 | 0.00 | 93 | 1013.5 |
| 20260906034844 | 70 | 97 | 0.0 | 0.0 | 0.00 | 0.00 | 0.00 | 93 | 1013.1 |
| 20260906034602 | 70 | 97 | 0.0 | 0.0 | 0.00 | 0.00 | 0.00 | 93 | 1012.4 |
| 20260906034354 | 70 | 97 | 0.0 | 0.0 | 0.00 | 0.00 | 0.00 | 93 | 1013.4 |
| 20260906033847 | 70 | 97 | 0.0 | 0.0 | 0.00 | 0.00 | 0.00 | 93 | 1013.4 |
| 20260906033359 | 71 | 97 | 0.0 | 0.0 | 0.00 | 0.00 | 0.00 | 93 | 1013.4 |
| 20260906033013 | 70 | 97 | 0.0 | 0.0 | 0.00 | 0.00 | 0.00 | 93 | 1012.5 |
| 20260906032912 | 71 | 97 | 0.0 | 0.0 | 0.00 | 0.00 | 0.00 | 93 | 1013.5 |
| 20260906032343 | 71 | 97 | 0.0 | 0.0 | 0.00 | 0.00 | 0.00 | 92 | 1013.5 |
| 20260906031837 | 71 | 97 | 0.0 | 0.0 | 0.00 | 0.00 | 0.00 | 93 | 1013.5 |
| 20260906031550 | 70 | 97 | 0.0 | 0.0 | 0.00 | 0.00 | 0.00 | 93 | 1012.3 |
| 20260906031349 | 71 | 97 | 0.0 | 0.0 | 0.00 | 0.00 | 0.00 | 93 | 1013.4 |
| 20260906030841 | 71 | 97 | 0.0 | 0.0 | 0.00 | 0.00 | 0.00 | 93 | 1013.4 |
| 20260906030034 | 70 | 97 | 0.0 | 0.0 | 0.00 | 0.00 | 0.00 | 93 | 1012.3 |
| 20260906025343 | 71 | 97 | 0.0 | 0.0 | 0.00 | 0.00 | 0.00 | 93 | 1013.3 |
| 20260906024836 | 71 | 97 | 0.0 | 0.0 | 0.00 | 0.00 | 0.00 | 93 | 1013.3 |
| 20260906024549 | 70 | 97 | 0.0 | 0.0 | 0.00 | 0.00 | 0.00 | 93 | 1012.2 |
| 20260906024348 | 71 | 97 | 0.0 | 0.0 | 0.00 | 0.00 | 0.00 | 93 | 1013.3 |
| 20260906023841 | 71 | 97 | 0.0 | 0.0 | 0.00 | 0.00 | 0.00 | 93 | 1013.2 |
| 20260906023413 | 71 | 97 | 0.0 | 0.0 | 0.00 | 0.00 | 0.00 | 92 | 1013.2 |
| 20260906023050 | 71 | 97 | 0.0 | 0.0 | 0.00 | 0.00 | 0.00 | 92 | 1012.0 |
| 20260906022844 | 71 | 97 | 0.0 | 0.0 | 0.00 | 0.00 | 0.00 | 92 | 1013.0 |
| 20260906022337 | 71 | 97 | 0.0 | 0.0 | 0.00 | 0.00 | 0.00 | 92 | 1013.0 |
| 20260906021850 | 71 | 97 | 0.0 | 0.0 | 0.00 | 0.00 | 0.00 | 92 | 1013.0 |
| 20260906021547 | 71 | 97 | 0.0 | 0.0 | 0.00 | 0.00 | 0.00 | 92 | 1011.8 |
| 20260906021343 | 71 | 97 | 0.0 | 0.0 | 0.00 | 0.00 | 0.00 | 92 | 1012.9 |
| 20260906020840 | 71 | 97 | 0.0 | 0.0 | 0.00 | 0.00 | 0.00 | 92 | 1012.8 |
| 20260906020355 | 72 | 97 | 0.0 | 0.0 | 0.00 | 0.00 | 0.00 | 92 | 1012.8 |
| 20260906020045 | 71 | 97 | 0.0 | 0.0 | 0.00 | 0.00 | 0.00 | 92 | 1011.7 |
| 20260906015844 | 72 | 97 | 0.0 | 0.0 | 0.00 | 0.00 | 0.00 | 92 | 1012.8 |
| 20260906015357 | 72 | 97 | 0.0 | 0.0 | 0.00 | 0.00 | 0.00 | 92 | 1012.8 |
| 20260906014847 | 72 | 97 | 0.0 | 0.0 | 0.00 | 0.00 | 0.00 | 92 | 1012.7 |
| 20260906014548 | 71 | 97 | 0.0 | 0.0 | 0.00 | 0.00 | 0.00 | 92 | 1011.6 |
| 20260906014341 | 72 | 97 | 0.0 | 0.0 | 0.00 | 0.00 | 0.00 | 92 | 1012.6 |
| 20260906013855 | 72 | 97 | 0.0 | 0.0 | 0.00 | 0.00 | 0.00 | 92 | 1012.6 |
| 20260906013406 | 72 | 97 | 0.0 | 0.0 | 0.00 | 0.00 | 0.00 | 92 | 1012.6 |
| 20260906013044 | 72 | 97 | 0.0 | 0.0 | 0.00 | 0.00 | 0.00 | 92 | 1011.5 |
| 20260906012838 | 72 | 97 | 0.0 | 0.0 | 0.00 | 0.00 | 0.00 | 92 | 1012.5 |
| 20260906012351 | 72 | 97 | 0.0 | 0.0 | 0.00 | 0.00 | 0.00 | 92 | 1012.6 |
| 20260906011902 | 72 | 97 | 0.0 | 0.0 | 0.00 | 0.00 | 0.00 | 92 | 1012.5 |
| 20260906011515 | 72 | 97 | 0.0 | 0.0 | 0.00 | 0.00 | 0.00 | 92 | 1011.3 |
| 20260906011414 | 72 | 97 | 0.0 | 0.0 | 0.00 | 0.00 | 0.00 | 92 | 1012.4 |
| 20260906010845 | 73 | 97 | 0.0 | 0.0 | 0.00 | 0.00 | 0.00 | 92 | 1012.4 |
| 20260906010358 | 73 | 97 | 0.0 | 0.0 | 0.00 | 0.00 | 0.00 | 92 | 1012.3 |
| 20260906010013 | 72 | 97 | 0.0 | 0.0 | 0.00 | 0.00 | 0.00 | 92 | 1011.2 |
| 20260906005908 | 73 | 97 | 0.0 | 0.0 | 0.00 | 0.00 | 0.00 | 92 | 1012.3 |
| 20260906005340 | 73 | 97 | 0.0 | 0.0 | 0.00 | 0.00 | 0.00 | 92 | 1012.2 |
| 20260906004854 | 73 | 97 | 0.0 | 0.0 | 0.00 | 0.00 | 0.00 | 92 | 1012.0 |
| 20260906004546 | 72 | 97 | 0.0 | 0.0 | 0.00 | 0.00 | 0.00 | 92 | 1010.9 |
| 20260906004347 | 73 | 97 | 0.0 | 0.0 | 0.00 | 0.00 | 0.00 | 92 | 1012.0 |
| 20260906003840 | 73 | 97 | 0.0 | 0.0 | 0.00 | 0.00 | 0.00 | 92 | 1012.1 |
| 20260906003352 | 73 | 97 | 0.0 | 0.0 | 0.00 | 0.00 | 0.00 | 92 | 1012.2 |
| 20260906003046 | 72 | 97 | 0.0 | 0.0 | 0.00 | 0.00 | 0.00 | 92 | 1011.0 |
| 20260906002845 | 73 | 97 | 0.0 | 0.0 | 0.00 | 0.00 | 0.00 | 92 | 1012.1 |
| 20260906002337 | 73 | 97 | 0.0 | 0.0 | 0.00 | 0.00 | 0.00 | 91 | 1011.9 |
| 20260906001850 | 73 | 97 | 327.0 | 327.0 | 0.00 | 0.00 | 0.00 | 91 | 1011.7 |
| 20260906001543 | 73 | 97 | 0.0 | 0.0 | 0.00 | 0.00 | 0.00 | 91 | 1010.7 |
| 20260906001343 | 73 | 97 | 0.0 | 0.0 | 0.00 | 0.00 | 0.00 | 91 | 1011.9 |
| 20260906000837 | 73 | 97 | 0.0 | 0.0 | 0.00 | 0.00 | 0.00 | 91 | 1011.9 |
| 20260906000350 | 73 | 97 | 0.0 | 0.0 | 0.00 | 0.00 | 0.00 | 91 | 1011.6 |
| 20260906000041 | 73 | 97 | 0.0 | 0.0 | 0.00 | 0.00 | 0.00 | 91 | 1010.5 |
| 20260905235840 | 73 | 97 | 0.0 | 0.0 | 0.00 | 0.00 | 0.00 | 91 | 1011.6 |
| 20260905235336 | 74 | 97 | 0.0 | 0.0 | 0.00 | 0.00 | 0.00 | 91 | 1011.6 |
| 20260905234849 | 74 | 97 | 0.0 | 0.0 | 0.00 | 0.00 | 0.00 | 91 | 1011.7 |
| 20260905234543 | 73 | 97 | 0.0 | 0.0 | 0.00 | 0.00 | 0.00 | 91 | 1010.6 |
| 20260905234342 | 74 | 97 | 0.0 | 0.0 | 0.00 | 0.00 | 0.00 | 91 | 1011.6 |
| 20260905233835 | 74 | 97 | 0.0 | 0.0 | 0.00 | 0.00 | 0.00 | 90 | 1011.7 |
| 20260905233347 | 74 | 97 | 0.0 | 0.0 | 0.00 | 0.00 | 0.00 | 90 | 1011.7 |
| 20260905233041 | 74 | 97 | 0.0 | 0.0 | 0.00 | 0.00 | 0.00 | 91 | 1010.5 |
| 20260905232841 | 74 | 97 | 0.0 | 0.0 | 0.00 | 0.00 | 0.00 | 91 | 1011.7 |
| 20260905232413 | 74 | 97 | 0.0 | 0.0 | 0.00 | 0.00 | 0.00 | 91 | 1011.7 |
| 20260905231843 | 74 | 97 | 0.0 | 0.0 | 0.00 | 0.00 | 0.00 | 90 | 1011.7 |
| 20260905231555 | 74 | 97 | 0.0 | 0.0 | 0.00 | 0.00 | 0.00 | 90 | 1010.6 |
| 20260905231355 | 74 | 97 | 0.0 | 0.0 | 0.00 | 0.00 | 0.00 | 90 | 1011.6 |
| 20260905230908 | 74 | 97 | 0.0 | 0.0 | 0.00 | 0.00 | 0.00 | 90 | 1011.6 |
| 20260905230340 | 74 | 97 | 0.0 | 0.0 | 0.00 | 0.00 | 0.00 | 90 | 1011.5 |
| 20260905230050 | 74 | 97 | 0.0 | 0.0 | 0.00 | 0.00 | 0.00 | 90 | 1010.4 |
| 20260905225849 | 74 | 97 | 0.0 | 0.0 | 0.00 | 0.00 | 0.00 | 90 | 1011.5 |
| 20260905225343 | 75 | 97 | 0.0 | 0.0 | 0.00 | 0.00 | 0.00 | 90 | 1011.6 |
| 20260905224855 | 75 | 122 | 0.0 | 0.0 | 0.00 | 0.00 | 0.00 | 90 | 1011.4 |
| 20260905224549 | 74 | 121 | 0.0 | 0.0 | 0.00 | 0.00 | 0.00 | 90 | 1010.2 |
| 20260905224348 | 75 | 122 | 0.0 | 0.0 | 0.00 | 0.00 | 0.00 | 90 | 1011.3 |
| 20260905223840 | 75 | 122 | 0.0 | 0.0 | 0.00 | 0.00 | 0.00 | 90 | 1011.3 |
| 20260905223352 | 75 | 227 | 0.0 | 0.0 | 0.00 | 0.00 | 0.00 | 90 | 1011.3 |
| 20260905223007 | 74 | 227 | 0.0 | 0.0 | 0.00 | 0.00 | 0.00 | 90 | 1010.2 |
| 20260905222906 | 75 | 63 | 0.0 | 0.0 | 0.00 | 0.00 | 0.00 | 90 | 1011.3 |
| 20260905222338 | 75 | 63 | 0.0 | 0.0 | 0.00 | 0.00 | 0.00 | 89 | 1011.2 |
| 20260905221850 | 75 | 63 | 0.0 | 0.0 | 0.00 | 0.00 | 0.00 | 89 | 1011.1 |
| 20260905221544 | 74 | 63 | 0.0 | 0.0 | 0.00 | 0.00 | 0.00 | 89 | 1010.1 |
| 20260905221343 | 75 | 63 | 0.0 | 0.0 | 0.00 | 0.00 | 0.00 | 89 | 1011.2 |
| 20260905220856 | 75 | 63 | 0.0 | 0.0 | 0.00 | 0.00 | 0.00 | 89 | 1011.1 |
| 20260905220350 | 75 | 63 | 0.0 | 0.0 | 0.00 | 0.00 | 0.00 | 89 | 1011.1 |
| 20260905220042 | 74 | 63 | 0.0 | 0.0 | 0.00 | 0.00 | 0.00 | 89 | 1010.0 |
| 20260905215840 | 75 | 63 | 0.0 | 0.0 | 0.00 | 0.00 | 0.00 | 88 | 1011.0 |
| 20260905215414 | 75 | 63 | 0.0 | 0.0 | 0.00 | 0.00 | 0.00 | 88 | 1011.0 |
| 20260905214846 | 75 | 63 | 0.0 | 0.0 | 0.00 | 0.00 | 0.00 | 89 | 1010.9 |
| 20260905214538 | 74 | 63 | 0.0 | 0.0 | 0.00 | 0.00 | 0.00 | 89 | 1009.8 |
| 20260905214338 | 74 | 63 | 0.0 | 0.0 | 0.00 | 0.00 | 0.00 | 89 | 1010.9 |
| 20260905213912 | 74 | 63 | 0.0 | 0.0 | 0.00 | 0.00 | 0.00 | 90 | 1010.9 |
| 20260905213342 | 74 | 63 | 0.0 | 1.0 | 0.00 | 0.00 | 0.00 | 90 | 1010.8 |
| 20260905213036 | 73 | 63 | 0.0 | 1.0 | 0.00 | 0.00 | 0.00 | 90 | 1009.7 |
| 20260905212836 | 74 | 63 | 0.0 | 1.0 | 0.00 | 0.00 | 0.00 | 91 | 1010.8 |
| 20260905212350 | 74 | 63 | 0.0 | 0.0 | 0.00 | 0.00 | 0.00 | 91 | 1010.6 |
| 20260905211522 | 73 | 63 | 0.0 | 0.0 | 0.00 | 0.00 | 0.00 | 91 | 1009.4 |
| 20260905210019 | 73 | 63 | 0.0 | 1.0 | 0.00 | 0.00 | 0.00 | 90 | 1009.3 |
| 20260905204519 | 73 | 63 | 0.0 | 1.0 | 0.00 | 0.00 | 0.00 | 90 | 1009.6 |
| 20260905203018 | 73 | 132 | 0.0 | 1.0 | 0.00 | 0.00 | 0.00 | 89 | 1009.9 |
| 20260905201519 | 74 | 80 | 1.0 | 3.0 | 0.00 | 0.00 | 0.00 | 87 | 1009.9 |
| 20260905200024 | 75 | 11 | 1.0 | 4.0 | 0.00 | 0.00 | 0.00 | 83 | 1010.1 |